Accueil
METAR-TAF:

METAR-TAF

Aéroports :

Millinocket Municipal Airport

Millinocket, Maine, États-Unis

latitude: 45-38-52N, longitude: 068-41-31W, altitude: 124 m

Observation

Le bulletin a été fait il y a 28 minutes, à 02:53 UTC
Vent calme
Température 15°C
Humidité 94%
Pression 1014 hPa
Visibilité: 16.1 km
Ciel clair

METAR: KMLT 190253Z AUTO 00000KT 10SM CLR 15/14 A2995 RMK AO2 SLP146 T01500139 51012 TSNO

Heure: 23:21 (03:21 UTC)


TAF: absent

Observations et prévisions météorologiques de plus de 4000 aéroports (messages METAR et TAF).

Les stations disponibles sont représentées par des disques jaunes et rouges sur la carte.

Passer la souris dessus pour voir le nom de la station.

Cliquer dessus pour voir les observations et prévisions météorologiques.

Pour changer de carte: cliquez sur les boutons verts avec une croix noire pour zoomer, sur le bouton vert avec un tiret pour effectuer un zoom arrière, ou sur les flèches vertes pour les cartes adjacentes.


METAR-TAF: